Regional Weather Roundup
Issued by NWS

Home | Current Version | Previous Version | Graphics & Text | Print | Product List | Glossary On
Versions: 1 2 3 4 5 6 7 8 9 10 11 12 13 14 15 16 17 18 19 20 21 22 23 24 25 26 27 28 29 30 31 32 33 34 35 36 37 38 39 40 41 42 43 44 45 46 47 48 49 50
000
ASUS43 KIND 261509
RWRIN

WEATHER ROUNDUP FOR INDIANA
NATIONAL WEATHER SERVICE INDIANAPOLIS IN
1000 AM EST MON JAN 26 2015

NOTE: "FAIR" INDICATES FEW OR NO CLOUDS BELOW 12,000 FEET WITH NO
SIGNIFICANT WEATHER AND/OR OBSTRUCTIONS TO VISIBILITY.

* - STATION DOES NOT REPORT WEATHER SUCH AS PRECIPITATION OR FOG.

+ - STATION NOT QUALITY CONTROLLED BY THE NATIONAL WEATHER SERVICE.
    USE DATA WITH CAUTION...ESPECIALLY DEWPOINT AND RELATIVE
    HUMIDITY OBSERVATIONS.

INZ001>003-010>013-019-020-261600-
NORTHWEST INDIANA

CITY           SKY/WX    TMP DP  RH WIND       PRES   REMARKS
GARY /AIRPORT/ MOSUNNY   19   9  63 S8        29.98S WCI   9
KNOX *+        MOSUNNY   15   3  59 CALM      29.95S
LA PORTE +     MOSUNNY   17  12  81 CALM      29.96R
MICHIGAN CITY+ MOSUNNY   16   9  73 CALM      29.97S
MONTICELLO +   FAIR      16  10  78 CALM      29.96S
RENSSELAER +   MOSUNNY   19  16  86 CALM      29.97S
VALPARAISO     MOSUNNY   16  10  77 CALM      29.96R

$$

LMZ046-743>745-261600-
SOUTHERN LAKE MICHIGAN

STATION/POSITION TIME  TEMP WIND        PRES
                       AIR  DIR/SP/G
                 (UTC) (F)  (DEG/KT/KT) (MB)
MICHIGAN CITY    1500   16  130/  2/  3   N/A

$$

INZ004-005-014>016-021>024-261600-
NORTH CENTRAL INDIANA

CITY           SKY/WX    TMP DP  RH WIND       PRES   REMARKS
ELKHART        SUNNY     14   7  73 E5        29.95F WCI   6
GOSHEN         MOSUNNY   14   9  80 E8        29.94F WCI   3
LOGANSPORT +   MOSUNNY   14  10  85 CALM      29.96F
PERU/GRISSOM   MOSUNNY   13   8  80 NE1       29.94F
ROCHESTER +    MOSUNNY   19  14  79 NE6       29.95F WCI  11
SOUTH BEND     MOSUNNY   15  10  80 E3        29.95F
WARSAW +       MOSUNNY   14  10  85 NE3       29.94F

$$

INZ006>009-017-018-025>027-261600-
NORTHEAST INDIANA

CITY           SKY/WX    TMP DP  RH WIND       PRES   REMARKS
ANGOLA *+      SUNNY     10   7  85 NE5       29.92F WCI   2
AUBURN +       MOSUNNY   16   9  73 N5        29.95S WCI   9
FORT WAYNE     PTSUNNY   14   7  73 N6        29.95S WCI   5
HUNTINGTON +   MOSUNNY   14   4  67 NE5       29.94F WCI   6

$$

INZ028-029-035-036-043>045-051>053-261600-
WEST CENTRAL INDIANA

CITY           SKY/WX    TMP DP  RH WIND       PRES   REMARKS
GREENCASTLE +  FAIR      23  18  80 NW6       29.96F WCI  16
LAFAYETTE      MOSUNNY   20  12  71 CALM      29.98R
TERRE HAUTE    CLOUDY    27  20  75 NW5       29.99R WCI  22

$$

INZ030>032-037>040-046>048-054>057-064-065-261600-
CENTRAL INDIANA

CITY           SKY/WX    TMP DP  RH WIND       PRES   REMARKS
ANDERSON       SUNNY     18   9  68 N12       29.95R WCI   5
CP ATTERBURY + MOSUNNY   25  18  74 N10       29.97R WCI  15
COLUMBUS       SUNNY     23  16  74 N10       29.97R WCI  12
GREENWOOD *+   MOSUNNY   23  14  68 NW6       29.95S WCI  16
INDIANAPOLIS   PTSUNNY   21  14  74 CALM      29.94S
-EAGLE CREEK   MOSUNNY   22  13  68 CALM      29.93F
KOKOMO *+      MOSUNNY   14   9  79 NE5       29.95F WCI   6
MARION +       MOSUNNY   15   9  76 N3        29.95S
MT COMFORT *+  SUNNY     23   7  50 N5        29.94S WCI  17
SHELBYVILLE    SUNNY     23  14  68 N8        29.95R WCI  14
ZIONSVILLE +   MOSUNNY   21  13  70 N3        29.94F

$$

INZ033-034-041-042-049-050-058-059-261600-
EAST CENTRAL INDIANA

CITY           SKY/WX    TMP DP  RH WIND       PRES   REMARKS
MUNCIE         SUNNY     16   9  74 N7        29.94R WCI   6

$$

INZ060-061-067>069-081>083-085>088-261600-
SOUTHWEST INDIANA

CITY           SKY/WX    TMP DP  RH WIND       PRES   REMARKS
EVANSVILLE     CLOUDY    32  25  75 NW8       30.02R WCI  25
HUNTINGBURG *+ CLOUDY    28  23  80 NW9       30.00S WCI  20
WASHINGTON +   CLOUDY    29  22  74 N7        29.98S WCI  22

$$

INZ062-063-066-070>080-084-089>092-261600-
SOUTH CENTRAL AND SOUTHEAST INDIANA

CITY           SKY/WX    TMP DP  RH WIND       PRES   REMARKS
BLOOMINGTON    CLOUDY    25  20  81 VRB3      29.95S

$$




USA.gov is the U.S. government's official web portal to all federal, state and local government web resources and services.